Regional Weather Roundup
Issued by NWS Cleveland, OH

Home | Current Version | Previous Version | Graphics & Text | Print | Product List | Glossary Off
Versions: 1 2 3 4 5 6 7 8 9 10 11 12 13 14 15 16 17 18 19 20 21 22 23 24 25 26 27 28 29 30 31 32 33 34 35 36 37 38 39 40 41 42 43 44 45 46 47 48 49 50

000
ASUS41 KCLE 242200
RWRCLE
OHIO REGIONAL WEATHER ROUNDUP
NATIONAL WEATHER SERVICE WILMINGTON, OH
500 PM EST FRI FEB 24 2017

NOTE: "FAIR" INDICATES FEW OR NO CLOUDS BELOW 12,000 FEET WITH NO
SIGNIFICANT WEATHER AND/OR OBSTRUCTIONS TO VISIBILITY.

OHZ001>008-015>018-024>027-034-035-043-044-242300-
   NORTHWEST OHIO

CITY           SKY/WX    TMP DP  RH WIND       PRES   REMARKS
DEFIANCE       FAIR      67  51  56 SW16G23   29.47R
FINDLAY        CLOUDY    71  51  49 S20G25    29.52S
TOLEDO EXPRESS PTSUNNY   68  54  60 S18G26    29.47F
TOLEDO EXEC    LGT RAIN  70  55  59 S15       29.52R
LIMA           CLOUDY    70  54  56 S10       29.54F
$$

OHZ009>014-019>023-028>033-038-089-242300-
   NORTHEAST OHIO

CITY           SKY/WX    TMP DP  RH WIND       PRES   REMARKS
CLE-HOPKINS    PTSUNNY   75  49  39 SW20G26   29.59R
CLE-LAKEFRONT  PTSUNNY   75  50  41 S18G24    29.56R
CUY CO. ARPT   PTSUNNY   75  52  43 S17G29    29.59
LORAIN-ELYRIA  PTSUNNY   72  51  47 SW18G25   29.58R
ASHTABULA      FAIR      73  50  44 S10       29.59S
AKRON-CANTON   PTSUNNY   75  50  41 SW12G22   29.60R
WOOSTER        NOT AVBL
MANSFIELD      PTSUNNY   71  51  49 SW14      29.59F
YOUNGSTOWN     CLOUDY    74  48  39 S13G23    29.60S
$$

OHZ042-051>053-060>062-070>072-077>081-242300-
  SOUTHWEST OHIO

CITY           SKY/WX    TMP DP  RH WIND       PRES   REMARKS
CINC-COVINGTON PTSUNNY   75  52  44 SW13      29.56S
CINC-LUNKEN    PTSUNNY   76  52  43 SW14G28   29.55S
HAMILTON       PTSUNNY   76  52  43 SW9G23    29.56S
DAYTON         NOT AVBL
WRIGHT-PAT AFB NOT AVBL
DAYTON GENERAL CLOUDY    74  51  44 SW12      29.56S
WILMINGTON     PTSUNNY   72  53  51 S14       29.57R
$$

OHZ036-037-039>041-045>050-054>059-063>069-073>076-082>088-242300-
  CENTRAL AND SOUTHEAST OHIO

CITY           SKY/WX    TMP DP  RH WIND       PRES   REMARKS
COLUMBUS       PTSUNNY   76  51  41 S14       29.58R
OSU AIRPORT    PTSUNNY   74  53  48 SW17G24   29.58R
BOLTON FIELD   SUNNY     73  54  49 SW18G24   29.59S
RICKENBACK AFB NOT AVBL
NEWARK         FAIR      76  50  40 S13G23    29.58R
MARION         CLOUDY    72  52  49 SW14      29.58S
LANCASTER      FAIR      77  48  35 SW14      29.59R
ZANESVILLE     FAIR      75  48  38 S18G24    29.59F
NEW PHILLY     FAIR      76  50  40 S8G20     29.60S
$$



USA.gov is the U.S. government's official web portal to all federal, state and local government web resources and services.